GW6172 Weather Reports


time (UTC)temp
C
wind
direction
speed
KPH
gust
KPH
rain 1hr
cm
rain 24hr
cm
rain mn
cm
humidity
%
barometer
mb
20260508083011 11 206 9.7 12.9 0.00 0.00 0.00 44 1024.0
20260508082011 12 279 8.0 9.7 0.00 0.00 0.00 44 1023.9
20260508081011 12 330 8.0 11.3 0.00 0.00 0.00 46 1023.9
20260508080011 12 232 11.3 12.9 0.00 0.00 0.00 46 1023.9
20260508075011 12 254 9.7 6.4 0.00 0.00 0.00 48 1023.9
20260508074011 12 306 12.9 14.5 0.00 0.00 0.00 49 1023.7
20260508073011 12 316 9.7 6.4 0.00 0.00 0.00 50 1023.7
20260508072010 11 260 8.0 12.9 0.00 0.00 0.00 50 1023.7
20260508071011 11 306 8.0 8.0 0.00 0.00 0.00 50 1023.6
20260508070011 11 341 8.0 9.7 0.00 0.00 0.00 52 1023.5
20260508065011 11 329 6.4 11.3 0.00 0.00 0.00 53 1023.4
20260508064011 10 286 4.8 6.4 0.00 0.00 0.00 56 1023.4
20260508063011 10 6 8.0 9.7 0.00 0.00 0.00 58 1023.2
20260508062011 10 323 4.8 6.4 0.00 0.00 0.00 63 1023.2
20260508061010 8 356 4.8 4.8 0.00 0.00 0.00 66 1023.1
20260508060011 7 259 4.8 3.2 0.00 0.00 0.00 69 1023.1
20260508055010 6 267 3.2 4.8 0.00 0.00 0.00 71 1023.0
20260508054010 5 254 4.8 3.2 0.00 0.00 0.00 75 1022.9
20260508053011 3 274 6.4 4.8 0.00 0.00 0.00 77 1022.7
20260508052010 2 299 3.2 3.2 0.00 0.00 0.00 81 1022.7
20260508051010 0 283 3.2 4.8 0.00 0.00 0.00 83 1022.5
20260508050011 0 1 1.6 3.2 0.00 0.00 0.00 82 1022.4
20260508045011 -1 334 1.6 3.2 0.00 0.00 0.00 82 1022.4
20260508044011 -2 292 0.0 0.0 0.00 0.00 0.00 81 1022.3
20260508043011 -2 180 0.0 0.0 0.00 0.00 0.00 80 1022.3
20260508042011 -2 180 0.0 0.0 0.00 0.00 0.00 80 1022.1
20260508041011 -3 212 1.6 1.6 0.00 0.00 0.00 79 1022.0
20260508040011 -3 127 1.6 3.2 0.00 0.00 0.00 79 1021.9
20260508035011 -3 58 3.2 3.2 0.00 0.00 0.00 79 1021.9
20260508034011 -4 270 0.0 0.0 0.00 0.00 0.00 79 1021.8
20260508033011 -4 270 0.0 0.0 0.00 0.00 0.00 79 1021.8
20260508032010 -4 270 0.0 0.0 0.00 0.00 0.00 78 1021.7
20260508031010 -4 270 0.0 0.0 0.00 0.00 0.00 78 1021.7
20260508030010 -5 270 0.0 1.6 0.00 0.00 0.00 78 1021.6
20260508025010 -5 270 0.0 1.6 0.00 0.00 0.00 78 1021.5
20260508024011 -5 270 1.6 3.2 0.00 0.00 0.00 78 1021.4
20260508023011 -5 270 0.0 1.6 0.00 0.00 0.00 78 1021.3
20260508022011 -5 270 1.6 1.6 0.00 0.00 0.00 78 1021.2
20260508021011 -5 270 1.6 1.6 0.00 0.00 0.00 77 1021.2
20260508020011 -5 270 1.6 1.6 0.00 0.00 0.00 77 1021.1
20260508015011 -4 270 1.6 1.6 0.00 0.00 0.00 77 1021.1
20260508014011 -4 270 0.0 0.0 0.00 0.00 0.00 77 1021.0
20260508013011 -4 270 1.6 0.0 0.00 0.00 0.00 77 1020.9
20260508012010 -4 270 1.6 0.0 0.00 0.00 0.00 77 1020.8
20260508011010 -4 270 1.6 1.6 0.00 0.00 0.00 76 1020.7
20260508010011 -4 270 1.6 3.2 0.00 0.00 0.00 76 1020.6
20260508005010 -4 270 3.2 3.2 0.00 0.00 0.00 76 1020.6
20260508004011 -4 270 0.0 0.0 0.00 0.00 0.00 76 1020.4
20260508003011 -4 270 0.0 0.0 0.00 0.00 0.00 76 1020.3
20260508002011 -3 270 0.0 0.0 0.00 0.00 0.00 76 1020.3
20260508001011 -3 270 0.0 0.0 0.00 0.00 0.00 76 1020.2
20260508000011 -3 270 0.0 0.0 0.00 0.00 0.00 76 1020.0
20260507235011 -3 270 0.0 0.0 0.00 0.00 0.00 76 1020.0
20260507234010 -3 270 0.0 0.0 0.00 0.00 0.00 75 1019.8
20260507233011 -3 270 0.0 0.0 0.00 0.00 0.00 75 1019.8
20260507232011 -3 270 0.0 0.0 0.00 0.00 0.00 75 1019.6
20260507231011 -3 270 0.0 0.0 0.00 0.00 0.00 75 1019.5
20260507230011 -3 270 0.0 1.6 0.00 0.00 0.00 74 1019.4
20260507225010 -3 270 1.6 0.0 0.00 0.00 0.00 75 1019.4
20260507224011 -3 270 1.6 1.6 0.00 0.00 0.00 74 1019.2
20260507223011 -3 270 1.6 1.6 0.00 0.00 0.00 74 1019.1
20260507222010 -2 270 0.0 0.0 0.00 0.00 0.00 73 1019.0
20260507221011 -2 270 0.0 0.0 0.00 0.00 0.00 73 1019.0
20260507220010 -2 270 0.0 0.0 0.00 0.00 0.00 73 1018.9
20260507215011 -2 270 0.0 0.0 0.00 0.00 0.00 73 1018.9
20260507214011 -2 270 0.0 0.0 0.00 0.00 0.00 73 1018.8
20260507213011 -2 270 0.0 0.0 0.00 0.00 0.00 72 1018.6
20260507212011 -2 270 1.6 0.0 0.00 0.00 0.00 72 1018.5
20260507211011 -2 270 0.0 0.0 0.00 0.00 0.00 71 1018.4
20260507210011 -2 270 0.0 0.0 0.00 0.00 0.00 70 1018.3
20260507205011 -1 270 0.0 0.0 0.00 0.00 0.00 70 1018.2
20260507204011 -1 270 0.0 0.0 0.00 0.00 0.00 70 1018.1
20260507203011 -1 270 0.0 0.0 0.00 0.00 0.00 70 1018.0
20260507202011 -1 270 1.6 1.6 0.00 0.00 0.00 69 1018.0
20260507201011 -1 270 1.6 3.2 0.00 0.00 0.00 69 1018.0
20260507200011 -1 270 1.6 3.2 0.00 0.00 0.00 68 1017.8
20260507195011 0 270 1.6 1.6 0.00 0.00 0.00 68 1017.7
20260507194010 0 270 1.6 3.2 0.00 0.00 0.00 67 1017.6
20260507193011 0 270 0.0 0.0 0.00 0.00 0.00 65 1017.4
20260507192011 0 270 1.6 0.0 0.00 0.00 0.00 65 1017.2
20260507191010 1 270 0.0 1.6 0.00 0.00 0.00 64 1017.1
20260507190011 1 270 1.6 3.2 0.00 0.00 0.00 63 1017.0
20260507185011 2 225 1.6 3.2 0.00 0.00 0.00 61 1016.8
20260507184011 2 270 0.0 1.6 0.00 0.00 0.00 61 1016.7
20260507183011 3 270 0.0 1.6 0.00 0.00 0.00 60 1016.6
20260507182011 3 270 0.0 0.0 0.00 0.00 0.00 59 1016.5
20260507181011 3 275 3.2 1.6 0.00 0.00 0.00 58 1016.5
20260507180011 4 238 3.2 3.2 0.00 0.00 0.00 57 1016.3
20260507175011 5 292 1.6 1.6 0.00 0.00 0.00 56 1016.3
20260507174011 6 292 3.2 3.2 0.00 0.00 0.00 56 1016.2
20260507173011 6 272 4.8 3.2 0.00 0.00 0.00 55 1016.1
20260507172011 6 261 8.0 4.8 0.00 0.00 0.00 55 1016.0
20260507171011 7 246 6.4 8.0 0.00 0.00 0.00 55 1016.0
20260507170010 7 298 6.4 8.0 0.00 0.00 0.00 55 1015.9
20260507165011 8 261 4.8 6.4 0.00 0.00 0.00 54 1015.7
20260507164012 8 266 6.4 6.4 0.00 0.00 0.00 54 1015.8
20260507163011 7 275 9.7 11.3 0.00 0.00 0.00 57 1015.7
20260507162010 6 271 4.8 6.4 0.00 0.00 0.00 57 1015.7
20260507161010 6 292 3.2 4.8 0.00 0.00 0.00 56 1015.7
20260507160010 6 293 3.2 3.2 0.00 0.00 0.00 56 1015.6
20260507155011 7 300 11.3 6.4 0.00 0.00 0.00 55 1015.5
20260507154011 7 305 4.8 6.4 0.00 0.00 0.00 55 1015.5
20260507153011 7 308 8.0 11.3 0.00 0.00 0.00 54 1015.4
20260507152011 8 336 9.7 12.9 0.00 0.00 0.00 55 1015.4
20260507151011 7 313 8.0 6.4 0.00 0.00 0.00 56 1015.2
20260507150011 7 341 8.0 9.7 0.00 0.00 0.00 56 1015.1
20260507145011 7 284 6.4 8.0 0.00 0.00 0.00 57 1015.1
20260507144011 7 263 8.0 9.7 0.00 0.00 0.00 58 1015.2
20260507143011 7 233 6.4 8.0 0.00 0.00 0.00 59 1015.1
20260507142011 7 251 6.4 6.4 0.00 0.00 0.00 59 1015.1
20260507141012 7 242 4.8 9.7 0.00 0.00 0.00 59 1014.9
20260507140011 6 214 4.8 6.4 0.00 0.00 0.00 60 1014.8
20260507135011 6 208 6.4 6.4 0.00 0.00 0.00 61 1014.8
20260507134011 6 288 6.4 6.4 0.00 0.00 0.00 61 1014.8
20260507133011 6 256 6.4 9.7 0.00 0.00 0.00 61 1014.8
20260507132011 6 254 4.8 6.4 0.00 0.00 0.00 61 1014.8
20260507131010 6 257 8.0 6.4 0.00 0.00 0.00 61 1014.8
20260507130011 5 279 4.8 6.4 0.00 0.00 0.00 61 1014.8
20260507125011 5 262 4.8 4.8 0.00 0.00 0.00 59 1014.9
20260507124011 5 274 9.7 9.7 0.00 0.00 0.00 58 1014.9
20260507123011 6 250 8.0 8.0 0.00 0.00 0.00 58 1015.0
20260507122010 6 331 11.3 12.9 0.00 0.00 0.00 57 1015.1
20260507121011 7 322 11.3 14.5 0.00 0.00 0.00 56 1015.1
20260507120010 7 184 9.7 12.9 0.00 0.00 0.00 56 1015.1
20260507115011 7 149 9.7 8.0 0.00 0.00 0.00 56 1015.0
20260507114011 8 142 11.3 14.5 0.00 0.00 0.00 56 1014.8
20260507113011 8 44 8.0 9.7 0.00 0.00 0.00 56 1014.8
20260507112011 8 141 12.9 9.7 0.00 0.00 0.00 57 1014.8
20260507111010 8 141 14.5 17.7 0.00 0.00 0.00 57 1014.9
20260507110011 7 118 12.9 16.1 0.00 0.00 0.00 58 1014.9
20260507105011 7 142 9.7 9.7 0.00 0.00 0.00 58 1014.8
20260507104010 7 155 12.9 16.1 0.00 0.00 0.00 58 1014.8
20260507103011 7 133 14.5 12.9 0.00 0.00 0.00 58 1014.9
20260507102011 7 137 14.5 17.7 0.00 0.00 0.00 59 1014.8
20260507101011 7 139 11.3 9.7 0.00 0.00 0.00 59 1014.7
20260507100011 7 145 14.5 19.3 0.00 0.00 0.00 59 1014.6
20260507095010 7 129 16.1 16.1 0.00 0.00 0.00 59 1014.5
20260507094010 7 148 11.3 14.5 0.00 0.00 0.00 59 1014.5
20260507093010 7 154 9.7 14.5 0.00 0.00 0.00 59 1014.5
20260507092011 7 162 9.7 11.3 0.00 0.00 0.00 60 1014.4
20260507091010 7 209 9.7 14.5 0.00 0.00 0.00 59 1014.4
20260507090011 7 144 12.9 20.9 0.00 0.00 0.00 59 1014.4
20260507085011 7 145 6.4 8.0 0.00 0.00 0.00 59 1014.4
20260507084010 7 192 11.3 11.3 0.00 0.00 0.00 59 1014.3